Terminal Aerodrome Forecast
Issued by NWS Nashville, TN

Home | Current Version | Previous Version | Text Only | Print | Product List | Glossary On
Versions: 1 2 3 4 5 6 7 8 9 10 11 12 13 14 15 16 17 18 19 20 21 22 23 24 25 26 27 28 29 30 31 32 33 34 35 36 37 38 39 40 41 42 43 44 45 46 47 48 49 50
000
FTUS44 KOHX 202339
TAFCSV
TAF
KCSV 202339Z 2100/2124 31005KT P6SM BKN050 OVC070
     FM210300 VRB03KT P6SM SCT120
     FM210600 26002KT 4SM BR SCT120
     FM210900 28002KT 2SM BR SCT120
     FM211400 31006KT P6SM SCT120=

USA.gov is the U.S. government's official web portal to all federal, state and local government web resources and services.